Temp
11 12 12 12 12 12 13 13 13 13 13 13 13 14 14 14 14 14 15 14 14 15 15 15 15 15 16 16 16 16 17 18 17 16 14 12 11 12 12 12 11 11 11 12 11
11 11 11 12 12 12 12 12 12 13 13 13 13 13 14 14 14 15 15 15 15 15 15 15 15 15 16 16 16 16 17 17 16 15 14 13 12 13 11 11 11 11 11 11 11
11 11 11 11 12 12 12 12 12 12 13 13 13 13 13 13 14 14 15 15 15 15 15 15 15 15 16 16 16 16 17 16 16 15 14 13 12 12 11 10 11 12 12 11 11
11 11 11 11 11 12 12 12 12 12 12 12 12 13 13 13 13 14 15 15 15 15 15 15 15 16 16 16 16 16 17 16 15 15 14 13 13 12 11 11 11 12 11 11 11
11 11 11 11 11 12 12 12 12 12 12 12 12 12 12 12 13 13 15 15 15 16 16 15 15 15 16 16 16 17 16 17 16 15 14 14 12 13 11 13 13 12 12 11 11
11 11 11 11 11 11 12 12 12 12 12 12 12 12 12 12 13 13 14 15 15 16 16 15 16 15 15 15 16 17 17 17 16 15 15 14 14 13 14 13 13 13 12 12 11
11 11 11 11 11 11 12 12 12 12 12 12 12 12 12 12 13 13 13 14 15 16 15 15 15 16 15 16 16 17 16 17 15 15 15 14 13 13 14 14 13 13 13 12 12
11 11 11 11 11 11 11 12 12 12 12 12 12 12 13 13 13 13 13 14 14 15 15 15 15 16 16 16 16 16 17 17 15 15 15 14 15 15 15 14 14 14 14 13 13
11 11 11 11 11 11 12 12 12 12 12 12 12 12 12 13 13 13 13 13 14 14 15 15 15 15 16 16 17 17 19 19 16 15 15 15 16 16 15 14 14 14 14 13 13
11 11 11 11 11 12 12 12 12 12 12 12 12 12 12 12 13 13 12 12 13 14 14 15 15 15 16 17 19 19 19 19 18 16 15 15 16 15 15 15 14 14 14 14 14
11 11 11 11 11 12 11 11 11 12 12 12 13 12 12 12 13 12 12 12 12 13 13 14 14 16 17 17 19 19 19 19 18 17 16 16 16 15 16 15 13 15 14 14 14
11 11 11 11 11 11 11 11 11 11 12 13 13 13 12 12 12 12 12 11 12 12 13 13 14 16 17 17 18 17 18 19 18 16 16 17 16 16 15 16 14 15 16 15 14
10 10 10 10 11 11 11 11 11 11 11 13 13 13 13 12 12 11 12 12 12 13 13 15 16 16 16 17 17 18 18 19 19 16 16 16 17 17 16 14 14 15 16 16 15
8 9 9 9 9 10 10 10 10 10 11 12 14 14 14 13 12 11 13 12 12 13 13 15 16 16 15 17 17 18 18 19 18 17 19 17 20 19 18 15 14 17 17 16 16
6 7 8 8 8 8 9 9 9 9 14 13 12 13 14 13 13 13 13 11 13 13 13 15 15 15 16 17 17 18 18 18 18 18 19 18 18 20 18 16 18 17 17 17 17
5 5 6 7 7 7 8 8 8 9 13 12 12 13 13 12 12 12 12 11 12 13 12 15 14 15 16 17 17 17 17 17 17 18 19 19 19 20 20 19 17 19 18 17 17
4 4 5 6 6 6 7 7 7 10 12 13 12 11 12 12 12 12 12 12 12 13 13 14 14 14 15 16 16 16 17 18 18 19 19 19 19 19 20 19 19 18 19 18 17
3 3 4 5 5 5 6 5 8 10 12 12 11 12 12 13 12 12 12 12 13 14 15 15 15 14 14 16 16 16 18 19 19 20 21 18 19 19 19 19 19 19 19 19 18
2 2 3 4 5 4 5 5 9 9 10 11 11 12 13 13 13 13 13 13 14 14 15 16 16 15 15 15 16 16 17 18 19 20 20 20 19 18 18 19 19 19 19 19 19
1 1 2 3 4 4 3 5 7 7 8 9 11 13 14 13 12 13 13 14 14 14 14 15 16 16 15 15 16 17 17 17 18 19 19 20 19 20 19 19 20 19 19 19 19
-0 -0 1 2 3 3 2 4 5 6 7 8 10 11 12 14 13 14 14 14 14 14 13 15 15 16 15 15 16 15 16 17 18 19 20 20 20 19 19 19 19 19 19 19 19
-2 -2 -1 0 1 1 2 2 3 4 5 6 7 8 11 12 12 14 14 14 14 14 13 14 15 16 15 16 16 17 17 17 18 18 19 19 20 20 19 19 19 19 19 19 19
-3 -2 -1 -1 -1 1 1 -0 1 2 4 6 7 7 9 10 11 12 13 13 13 13 13 14 14 15 16 15 14 16 17 17 17 18 19 19 19 19 19 18 18 19 19 19 19
-4 -4 -4 -2 -3 -3 -2 -2 0 1 2 4 6 7 8 8 9 11 11 11 13 13 13 13 14 15 17 17 16 15 16 17 17 18 18 19 18 19 18 18 18 18 18 19 19
-6 -6 -4 -4 -5 -5 -4 -3 -2 -0 1 1 3 5 6 7 8 9 11 10 12 12 12 13 13 15 15 16 17 17 16 16 16 17 18 18 19 18 18 18 18 18 18 18 19
-8 -7 -7 -7 -7 -5 -5 -3 -3 -2 -2 2 2 2 4 6 7 9 9 10 11 10 11 12 12 13 14 15 15 16 16 16 16 16 17 18 18 18 18 18 18 18 18 18 19
-8 -8 -7 -7 -6 -6 -4 -4 -4 -4 -2 -2 -3 1 2 3 4 5 6 8 8 9 10 10 12 12 14 14 15 15 15 16 16 16 16 17 17 17 17 17 17 18 18 18 18
Height
3182 3181 3181 3180 3180 3179 3179 3179 3178 3177 3177 3176 3176 3177 3177 3177 3179 3181 3184 3188 3189 3191 3192 3193 3194 3194 3194 3194 3194 3194 3196 3193 3194 3193 3194 3191 3190 3189 3189 3190 3191 3192 3194 3196 3197
3179 3179 3178 3177 3176 3175 3175 3174 3174 3173 3173 3172 3171 3172 3172 3172 3173 3175 3179 3182 3186 3189 3190 3193 3194 3195 3195 3195 3196 3195 3196 3196 3196 3195 3195 3193 3193 3191 3192 3192 3193 3194 3195 3197 3199
3175 3175 3174 3174 3173 3172 3171 3170 3170 3169 3168 3168 3167 3167 3167 3168 3169 3169 3173 3178 3182 3186 3187 3191 3193 3195 3196 3196 3196 3196 3197 3196 3196 3197 3195 3194 3193 3193 3195 3197 3195 3196 3197 3199 3201
3171 3170 3170 3170 3169 3168 3167 3167 3166 3165 3164 3164 3163 3163 3164 3165 3170 3165 3168 3173 3177 3181 3185 3189 3192 3194 3196 3197 3196 3196 3196 3195 3197 3197 3198 3197 3196 3196 3198 3198 3196 3197 3199 3201 3203
3166 3165 3165 3165 3165 3164 3164 3163 3163 3161 3161 3160 3160 3160 3161 3162 3162 3161 3164 3168 3173 3178 3182 3187 3191 3194 3197 3197 3195 3195 3196 3197 3198 3198 3200 3198 3198 3198 3198 3197 3197 3198 3199 3201 3204
3161 3161 3160 3159 3159 3159 3159 3159 3159 3158 3157 3157 3157 3157 3158 3159 3158 3159 3161 3164 3170 3175 3179 3185 3189 3193 3194 3196 3196 3195 3195 3197 3198 3199 3200 3202 3199 3200 3199 3198 3198 3200 3201 3203 3204
3156 3156 3155 3154 3154 3154 3154 3155 3155 3154 3154 3153 3153 3153 3154 3156 3155 3157 3159 3162 3166 3171 3176 3182 3187 3191 3193 3195 3195 3195 3197 3198 3199 3200 3201 3202 3202 3203 3200 3200 3200 3201 3203 3204 3206
3151 3151 3150 3149 3149 3148 3149 3150 3150 3150 3150 3150 3150 3150 3150 3151 3152 3154 3157 3160 3164 3168 3173 3179 3184 3187 3190 3191 3194 3196 3199 3198 3199 3200 3201 3203 3203 3201 3201 3201 3202 3203 3204 3205 3207
3146 3145 3144 3143 3143 3143 3144 3145 3146 3146 3147 3147 3147 3147 3147 3148 3149 3151 3155 3159 3162 3165 3170 3175 3180 3185 3188 3191 3194 3194 3192 3194 3198 3200 3200 3203 3204 3201 3202 3202 3202 3203 3204 3206 3207
3142 3141 3139 3138 3138 3138 3139 3139 3140 3141 3142 3143 3143 3146 3144 3145 3146 3149 3153 3156 3160 3163 3169 3173 3177 3181 3185 3188 3186 3189 3189 3192 3196 3198 3199 3202 3204 3201 3202 3202 3202 3202 3204 3205 3207
3137 3136 3135 3132 3133 3133 3134 3135 3138 3137 3137 3139 3140 3140 3140 3141 3144 3146 3150 3154 3158 3162 3166 3169 3174 3174 3180 3184 3185 3187 3189 3191 3194 3197 3199 3201 3202 3203 3200 3201 3201 3201 3202 3204 3206
3131 3130 3130 3128 3127 3128 3129 3129 3130 3132 3130 3131 3133 3135 3136 3138 3141 3143 3147 3152 3154 3158 3164 3167 3165 3174 3180 3183 3185 3187 3188 3189 3193 3195 3198 3198 3198 3200 3199 3198 3199 3201 3201 3202 3204
3123 3123 3123 3122 3122 3123 3123 3124 3125 3125 3125 3124 3125 3127 3132 3134 3136 3140 3143 3147 3151 3156 3158 3160 3165 3172 3176 3179 3182 3184 3185 3186 3190 3193 3195 3195 3194 3193 3195 3194 3196 3198 3201 3201 3200
3117 3116 3117 3116 3119 3117 3119 3120 3121 3122 3122 3119 3116 3118 3123 3128 3130 3135 3139 3146 3149 3151 3156 3160 3165 3166 3169 3174 3179 3180 3183 3185 3188 3191 3189 3191 3186 3187 3189 3189 3189 3192 3196 3199 3199
3110 3109 3111 3110 3111 3113 3116 3116 3118 3121 3119 3112 3109 3111 3115 3121 3127 3127 3133 3140 3144 3147 3152 3152 3156 3159 3164 3169 3175 3177 3180 3183 3186 3187 3187 3188 3190 3183 3183 3185 3184 3187 3190 3194 3197
3103 3103 3104 3105 3105 3107 3109 3113 3117 3123 3112 3107 3105 3107 3110 3114 3122 3125 3128 3136 3142 3145 3147 3152 3152 3157 3161 3166 3171 3175 3178 3182 3184 3183 3182 3182 3185 3178 3179 3182 3183 3184 3186 3189 3192
3096 3096 3097 3099 3100 3101 3104 3109 3117 3109 3104 3103 3103 3104 3108 3110 3117 3118 3122 3127 3131 3137 3140 3145 3147 3151 3156 3162 3166 3169 3174 3176 3178 3175 3174 3175 3179 3177 3177 3180 3182 3183 3183 3185 3189
3089 3089 3089 3091 3094 3096 3099 3105 3102 3095 3098 3097 3100 3102 3105 3108 3112 3115 3119 3122 3127 3130 3134 3137 3143 3144 3146 3152 3157 3160 3165 3163 3165 3164 3166 3171 3172 3173 3176 3176 3177 3178 3180 3182 3183
3080 3081 3081 3083 3086 3089 3094 3093 3088 3092 3094 3097 3098 3099 3101 3103 3107 3110 3112 3114 3118 3123 3128 3130 3134 3138 3143 3148 3154 3156 3155 3163 3162 3161 3162 3159 3165 3169 3171 3173 3174 3175 3176 3178 3179
3071 3072 3072 3075 3077 3081 3082 3078 3084 3085 3086 3090 3092 3094 3095 3098 3100 3102 3105 3107 3112 3118 3123 3127 3131 3133 3138 3144 3146 3149 3156 3158 3158 3156 3155 3158 3160 3161 3166 3168 3170 3172 3174 3175 3175
3064 3064 3065 3068 3070 3070 3069 3073 3077 3081 3083 3087 3088 3090 3091 3093 3094 3096 3097 3103 3106 3112 3118 3124 3126 3128 3133 3131 3136 3142 3145 3148 3152 3152 3151 3152 3152 3159 3163 3165 3167 3169 3171 3171 3171
3057 3060 3057 3060 3064 3063 3064 3068 3068 3072 3077 3079 3080 3082 3086 3090 3090 3091 3093 3098 3099 3106 3109 3116 3122 3121 3123 3128 3132 3135 3138 3143 3142 3145 3145 3147 3146 3152 3157 3161 3163 3164 3166 3166 3166
3050 3050 3051 3053 3056 3059 3061 3058 3061 3066 3069 3074 3076 3079 3083 3085 3088 3087 3090 3090 3094 3099 3102 3110 3112 3116 3120 3123 3124 3125 3130 3134 3139 3142 3137 3143 3145 3150 3153 3156 3159 3160 3161 3161 3161
3046 3048 3047 3046 3047 3050 3052 3053 3056 3059 3061 3065 3069 3074 3077 3078 3081 3083 3085 3085 3089 3095 3098 3103 3106 3106 3104 3109 3118 3121 3123 3128 3131 3131 3134 3132 3141 3144 3147 3151 3154 3155 3157 3157 3157
3042 3044 3041 3046 3045 3043 3045 3048 3050 3053 3056 3055 3060 3064 3069 3073 3076 3078 3082 3083 3084 3085 3092 3097 3097 3102 3105 3107 3110 3113 3117 3121 3122 3125 3126 3131 3132 3138 3143 3145 3148 3150 3152 3152 3152
3038 3040 3039 3038 3038 3039 3041 3044 3046 3047 3048 3055 3055 3053 3054 3063 3069 3075 3078 3080 3082 3083 3087 3090 3092 3097 3100 3105 3107 3109 3111 3112 3114 3118 3120 3124 3125 3131 3136 3140 3142 3143 3146 3146 3148
3034 3033 3033 3034 3035 3036 3039 3040 3041 3041 3044 3044 3044 3045 3052 3058 3053 3056 3060 3068 3072 3077 3082 3085 3088 3091 3094 3100 3105 3102 3094 3100 3106 3111 3115 3116 3122 3127 3129 3132 3134 3137 3139 3141 3143
Wind_Speed
14 15 15 16 16 17 18 19 20 21 22 23 25 25 26 28 28 27 24 22 19 15 13 8 5 3 4 6 7 8 3 6 7 6 5 7 8 8 10 13 13 11 13 15 21
13 14 15 15 15 15 16 16 17 18 19 19 20 20 21 23 25 26 25 24 21 19 16 10 7 4 3 5 6 4 3 6 5 5 5 7 8 8 11 10 9 12 15 15 17
15 15 14 15 15 15 15 15 15 16 16 17 17 17 17 18 19 24 24 24 23 22 20 16 10 6 4 4 5 5 1 3 3 4 5 8 8 9 10 7 4 10 13 15 15
17 17 17 15 15 15 15 14 14 15 15 15 15 15 14 14 5 15 21 24 26 26 24 18 13 8 4 4 5 2 1 3 5 4 5 8 8 7 11 6 9 13 14 15 16
18 18 18 18 17 16 15 14 14 14 14 13 13 13 12 12 13 13 19 25 28 28 27 19 14 9 7 5 6 1 3 5 4 6 7 4 7 6 7 11 13 13 15 16 16
20 20 19 20 19 18 16 14 14 13 13 13 12 12 11 9 13 18 18 24 27 29 27 22 19 12 7 6 3 2 8 7 7 6 4 5 5 6 6 9 12 12 13 15 16
19 20 20 21 20 20 19 16 15 13 13 12 11 11 11 10 12 17 16 21 27 29 27 23 20 16 9 6 6 5 8 8 9 7 5 7 3 2 7 7 11 12 12 13 15
18 18 19 22 21 21 21 18 17 15 13 13 11 11 10 13 14 15 18 20 26 29 27 25 22 20 14 13 6 9 11 11 11 10 7 4 5 2 6 8 9 11 13 13 14
19 18 18 19 21 21 21 19 18 17 15 13 11 11 10 14 15 16 19 17 22 26 26 28 25 20 20 13 11 14 17 13 10 13 10 8 2 5 4 8 11 12 13 15 17
20 20 20 20 19 19 21 20 20 18 17 15 13 11 12 13 17 18 21 19 21 24 24 29 28 23 21 20 21 20 14 16 10 14 13 10 8 2 5 5 9 13 14 16 16
21 21 21 22 20 19 18 20 19 20 18 17 13 7 7 16 15 20 25 21 19 22 23 30 26 31 28 25 16 15 18 16 11 10 11 11 9 13 11 8 12 9 15 17 16
22 21 19 23 22 20 18 18 19 20 21 18 17 17 17 13 19 24 24 24 21 24 23 24 33 28 24 23 21 16 18 16 10 11 11 10 15 13 17 11 13 9 8 14 17
24 22 19 20 21 20 19 18 18 19 22 22 22 22 20 23 24 23 27 24 21 24 30 29 28 25 26 26 23 21 20 19 15 12 12 9 14 17 18 19 19 17 12 13 18
23 23 17 18 18 18 17 17 16 15 12 13 14 21 25 24 30 27 29 24 20 27 26 26 26 30 29 28 26 24 22 19 15 12 14 9 15 7 13 18 22 20 19 18 18
22 22 17 17 17 17 15 13 12 8 5 7 11 17 23 31 15 32 29 26 20 21 28 29 29 29 30 31 27 24 17 19 18 17 11 13 12 12 8 15 13 19 22 22 20
20 20 18 17 16 16 13 13 10 5 10 7 11 14 19 28 16 21 31 25 19 20 24 21 19 25 31 29 27 22 18 18 17 18 17 19 15 18 9 9 10 7 16 24 24
21 19 18 16 17 15 13 14 9 13 8 11 11 15 17 19 23 21 35 34 28 27 25 29 18 24 27 30 26 25 25 16 13 15 17 15 13 21 6 9 9 11 8 11 26
23 20 19 17 17 17 16 20 17 8 16 10 12 14 19 19 26 25 29 36 34 27 24 30 28 28 27 35 33 34 32 25 17 14 21 15 17 23 15 12 13 12 12 9 12
23 21 20 18 18 20 22 28 14 21 14 12 9 16 20 20 14 27 32 37 37 34 25 32 31 33 26 34 32 33 41 34 31 28 14 18 16 19 17 15 9 12 14 12 9
21 19 20 17 20 23 29 36 24 15 15 16 20 16 19 22 21 27 29 35 35 37 31 17 23 23 30 27 32 35 33 31 31 21 21 26 25 17 12 13 12 10 11 11 11
19 16 18 20 22 26 30 29 26 24 19 12 17 21 17 18 24 25 22 21 34 35 32 27 20 23 25 39 32 30 30 31 36 38 23 17 27 23 19 17 13 13 14 14 16
17 11 14 18 22 20 23 20 24 19 26 23 17 14 21 20 17 25 26 20 20 34 36 33 23 24 27 28 31 35 34 39 34 30 24 30 27 19 14 13 14 15 17 17 17
16 17 17 19 15 20 19 18 19 19 23 27 27 22 15 19 16 23 20 24 21 30 32 33 27 25 26 21 23 33 39 37 36 35 36 27 32 23 17 18 16 16 14 17 14
13 5 8 14 20 17 16 14 17 14 21 23 27 29 24 23 19 11 18 15 26 21 30 32 34 36 33 34 24 26 32 35 36 37 35 34 29 26 20 19 18 16 17 16 17
9 7 13 7 9 12 13 15 12 14 16 14 23 29 27 27 25 24 15 9 21 29 31 29 35 34 35 28 25 30 29 30 35 39 37 35 39 34 32 26 22 19 19 21 18
7 6 10 13 14 14 12 11 13 15 12 14 16 20 30 30 27 26 23 18 14 14 23 25 23 28 32 30 29 28 28 29 34 36 36 36 32 24 26 26 23 20 20 21 22
14 12 12 10 10 10 12 13 11 10 14 12 9 16 9 20 28 31 24 26 16 16 17 18 23 21 27 29 29 35 46 43 37 32 32 35 31 29 29 28 25 27 25 23 20
Wind_Direction
263 264 265 265 266 267 268 268 267 265 264 263 263 261 258 257 254 249 242 235 236 232 237 244 275 316 336 346 342 346 22 47 56 59 111 104 111 118 136 136 135 149 163 168 165
268 267 268 269 270 272 272 271 270 270 269 268 266 264 260 255 251 245 236 228 222 223 227 233 243 252 307 323 336 342 40 54 70 63 118 110 112 105 127 135 139 156 162 163 166
274 272 269 270 271 272 274 276 276 275 273 270 269 269 265 258 253 245 231 220 213 215 222 223 224 235 261 289 310 312 111 18 82 92 101 117 106 111 142 138 160 159 154 154 157
274 274 275 273 272 273 274 277 280 281 278 274 269 267 263 257 237 240 223 213 208 209 216 220 216 223 240 251 312 357 302 195 122 121 109 126 125 125 150 166 158 152 150 155 157
273 273 273 274 273 271 273 276 280 284 282 277 270 264 257 250 231 222 207 205 203 206 211 214 214 211 229 238 311 167 228 179 156 152 139 118 130 135 147 145 146 149 150 156 158
274 272 272 272 273 274 273 274 277 282 284 279 271 262 249 243 230 216 207 200 199 203 209 204 205 206 231 222 241 206 185 171 176 179 189 126 115 113 137 137 138 145 155 162 167
276 273 272 270 270 271 271 271 273 278 282 283 274 261 242 224 224 218 211 199 197 201 205 200 202 195 221 215 230 169 153 173 167 188 193 157 131 116 161 152 146 149 160 171 172
284 278 272 269 269 268 269 270 270 274 278 282 279 262 237 224 220 213 209 201 197 200 198 194 197 192 202 209 204 174 177 174 193 196 210 182 106 193 184 176 169 166 168 171 172
284 282 279 272 266 266 268 268 267 269 273 276 276 266 244 221 216 211 202 200 202 200 198 193 192 191 206 200 199 196 189 191 187 200 222 199 28 221 183 187 189 188 182 178 177
285 283 278 275 273 266 263 265 265 264 264 270 267 258 233 212 214 207 200 194 197 201 195 194 192 197 195 203 204 193 222 189 196 206 212 219 218 286 227 202 197 200 200 197 192
284 280 280 277 273 270 267 261 266 268 259 254 247 225 217 215 209 205 202 202 197 198 194 194 194 201 203 204 210 214 209 202 204 210 207 230 242 242 255 243 214 220 216 207 206
288 283 276 274 272 270 265 263 259 263 266 255 245 235 230 225 202 200 200 200 203 198 191 196 207 207 205 209 219 223 218 216 197 213 212 251 253 243 240 256 238 244 256 211 201
287 285 282 274 270 266 264 262 261 264 274 264 250 241 224 220 206 207 203 201 206 201 202 208 212 202 204 206 210 221 223 219 220 210 226 262 267 246 242 234 227 231 227 228 200
285 281 279 274 273 264 258 259 260 270 285 268 242 229 221 219 222 202 207 201 206 209 209 212 210 206 203 206 206 218 220 223 208 210 230 210 281 246 236 228 217 212 215 223 207
288 282 274 266 264 260 253 250 251 254 274 227 214 208 210 204 219 209 203 199 210 202 199 208 208 206 205 206 205 222 214 212 213 223 245 236 255 258 277 219 225 209 208 216 220
295 286 276 261 255 253 245 225 220 201 238 222 201 202 201 195 199 198 202 198 204 205 211 207 214 210 211 206 209 213 206 207 216 230 231 248 234 263 211 227 228 216 217 214 219
290 287 277 258 248 242 231 201 194 227 236 216 205 194 192 196 195 195 193 196 194 192 204 207 216 204 198 204 202 198 191 191 214 218 243 241 224 246 241 246 239 241 249 226 223
290 280 271 258 240 231 216 191 223 224 209 208 198 198 197 194 201 198 198 203 204 205 205 199 208 203 201 204 202 204 208 226 217 232 236 199 234 246 252 260 245 232 250 265 229
288 279 264 252 236 224 208 208 226 225 220 229 211 204 208 204 203 201 207 210 211 205 211 206 217 211 209 205 207 213 220 226 243 247 269 242 233 249 253 253 251 223 239 250 233
290 272 259 243 228 225 216 222 226 218 213 211 217 212 211 208 204 201 204 216 214 212 203 213 217 206 209 202 215 216 220 216 230 245 242 241 249 246 230 243 231 228 233 256 253
294 279 257 234 228 232 226 231 239 235 212 226 223 228 220 212 212 210 214 215 212 213 210 211 211 203 208 211 209 211 215 223 235 230 243 246 246 240 244 242 235 237 258 261 262
289 277 260 237 233 232 234 234 229 227 224 234 239 228 223 224 221 217 216 215 215 206 209 206 216 217 214 220 223 223 220 220 225 226 241 252 251 232 228 226 241 269 247 258 257
283 270 259 237 234 236 239 242 244 234 233 229 233 231 225 224 231 220 219 215 198 203 210 201 215 214 225 207 218 219 221 223 228 234 231 230 237 230 237 244 255 242 259 279 279
291 284 274 245 230 226 247 256 245 240 241 231 229 228 231 233 224 217 214 221 220 207 206 206 218 220 214 218 213 212 217 222 226 227 232 235 239 233 231 237 244 259 255 264 268
278 260 247 225 231 247 255 254 252 252 230 235 229 226 226 234 224 224 204 205 201 201 204 204 216 223 230 232 221 219 216 216 220 226 229 236 237 241 241 246 250 260 258 258 259
257 269 273 262 267 257 266 241 242 242 233 220 226 220 221 228 224 223 224 212 196 200 201 201 217 219 227 224 228 229 225 223 227 228 235 239 241 239 240 241 244 248 263 259 242
277 280 274 260 267 262 251 243 228 257 237 229 240 220 227 217 217 211 207 204 200 180 194 204 211 213 225 225 232 241 228 227 230 230 230 235 239 236 239 238 247 253 257 259 251